Nampa, ID

10:56 PM MDT on March 25, 2017 (GMT -0600)
Nampa

Weather History for KMAN - June, 2013

Change the Weather History Date:

Thursday, June 13, 2013

  Actual Average (KBOI) Record (KBOI)
Temperature  
Mean Temperature 61 °F -  
Max Temperature 69 °F 77 °F 100 °F (1918)
Min Temperature 53 °F 49 °F 36 °F (1901)
Degree Days  
Heating Degree Days 4    
Growing Degree Days 11 (Base 50)    
Moisture  
Dew Point 34 °F    
Average Humidity 36    
Maximum Humidity 58    
Minimum Humidity 21    
Precipitation  
Precipitation 0.00 in - - ()
Sea Level Pressure  
Sea Level Pressure 30.03 in    
Wind  
Wind Speed 13 mph (WNW)    
Max Wind Speed 18 mph    
Max Gust Speed 25 mph    
Visibility 10 miles    
Events      
Averages and records for this station are not official NWS values.
T = Trace of Precipitation, MM = Missing Value Source: NWS Daily Summary

Daily Weather History Graph

Daily Weather History Graph

Search for Another Location

Airport or City:

Trip Planner

Search our weather history database for the weather conditions in past years. The results will help you decide how hot, cold, wet, or windy it might be!

Date:

Astronomy

Jun. 13, 2013 Rise Set
Actual Time 6:04 AM MDT 9:28 PM MDT
Civil Twilight 5:28 AM MDT 10:04 PM MDT
Nautical Twilight 4:41 AM MDT 10:51 PM MDT
Astronomical Twilight 3:43 AM MDT 11:49 PM MDT
Moon 10:52 AM MDT (6/13) No Moon Set
Length of Visible Light 16h 35m
Length of Day
15h 24m
Waxing Crescent, 22% of the Moon is Illuminated
Jun 13
Waxing Crescent
Jun 16
First Quarter
Jun 23
Full
Jun 29
Last Quarter
Jul 8
New

Hourly Weather History & Observations

Time (MDT) Temp. Dew Point Humidity Pressure Visibility Wind Dir Wind Speed Gust Speed Precip Events Conditions
12:15 AM 64.4 °F 32.0 °F 30% 29.95 in 10.0 mi NW 18.4 mph 23.0 mph N/A   Mostly Cloudy
12:35 AM 62.6 °F 32.0 °F 32% 29.95 in 10.0 mi NW 13.8 mph 20.7 mph N/A   Clear
12:55 AM 62.6 °F 32.0 °F 32% 29.95 in 10.0 mi NW 12.7 mph 21.9 mph N/A   Clear
1:15 AM 62.6 °F 32.0 °F 32% 29.95 in 10.0 mi NW 15.0 mph 24.2 mph N/A   Clear
1:35 AM 62.6 °F 32.0 °F 32% 29.95 in 10.0 mi NNW 9.2 mph - N/A   Clear
1:55 AM 60.8 °F 32.0 °F 34% 29.96 in 10.0 mi NNW 10.4 mph - N/A   Scattered Clouds
2:15 AM 62.6 °F 32.0 °F 32% 29.96 in 10.0 mi NNW 9.2 mph - N/A   Scattered Clouds
2:35 AM 60.8 °F 33.8 °F 36% 29.96 in 10.0 mi NW 10.4 mph - N/A   Mostly Cloudy
2:55 AM 60.8 °F 33.8 °F 36% 29.96 in 10.0 mi NNW 9.2 mph - N/A   Overcast
3:15 AM 62.6 °F 33.8 °F 34% 29.95 in 10.0 mi NNW 10.4 mph - N/A   Overcast
3:35 AM 60.8 °F 33.8 °F 36% 29.96 in 10.0 mi NW 10.4 mph - N/A   Scattered Clouds
3:55 AM 60.8 °F 37.4 °F 42% 29.96 in 10.0 mi NW 11.5 mph - N/A   Scattered Clouds
4:15 AM 59.0 °F 37.4 °F 45% 29.96 in 10.0 mi NW 10.4 mph - N/A   Scattered Clouds
4:35 AM 57.2 °F 39.2 °F 51% 29.96 in 10.0 mi NW 12.7 mph - N/A   Mostly Cloudy
4:55 AM 57.2 °F 39.2 °F 51% 29.97 in 10.0 mi WNW 13.8 mph 21.9 mph N/A   Overcast
5:15 AM 55.4 °F 41.0 °F 58% 29.98 in 10.0 mi WNW 11.5 mph 17.3 mph N/A   Overcast
5:35 AM 57.2 °F 39.2 °F 51% 29.98 in 10.0 mi WNW 15.0 mph - N/A   Overcast
5:55 AM 55.4 °F 39.2 °F 54% 29.98 in 10.0 mi WNW 15.0 mph - N/A   Overcast
6:15 AM 55.4 °F 37.4 °F 51% 29.98 in 10.0 mi NW 9.2 mph - N/A   Overcast
6:35 AM 53.6 °F 37.4 °F 54% 29.99 in 10.0 mi NW 11.5 mph - N/A   Mostly Cloudy
6:55 AM 55.4 °F 35.6 °F 47% 30.00 in 10.0 mi WNW 13.8 mph 19.6 mph N/A   Overcast
7:15 AM 53.6 °F 33.8 °F 47% 30.00 in 10.0 mi NW 12.7 mph 18.4 mph N/A   Mostly Cloudy
7:35 AM 53.6 °F 33.8 °F 47% 30.02 in 10.0 mi NW 12.7 mph 18.4 mph N/A   Mostly Cloudy
7:55 AM 53.6 °F 32.0 °F 44% 30.02 in 10.0 mi NW 13.8 mph - N/A   Scattered Clouds
8:15 AM 55.4 °F 33.8 °F 44% 30.02 in 10.0 mi WNW 15.0 mph 19.6 mph N/A   Partly Cloudy
8:35 AM 55.4 °F 33.8 °F 44% 30.02 in 10.0 mi NW 13.8 mph - N/A   Scattered Clouds
8:55 AM 55.4 °F 33.8 °F 44% 30.03 in 10.0 mi WNW 16.1 mph 21.9 mph N/A   Partly Cloudy
9:15 AM 57.2 °F 35.6 °F 44% 30.03 in 10.0 mi NW 11.5 mph - N/A   Clear
9:35 AM 57.2 °F 35.6 °F 44% 30.04 in 10.0 mi WNW 16.1 mph - N/A   Partly Cloudy
9:55 AM 57.2 °F 35.6 °F 44% 30.04 in 10.0 mi NW 16.1 mph 21.9 mph N/A   Clear
10:15 AM 59.0 °F 37.4 °F 45% 30.04 in 10.0 mi NW 10.4 mph - N/A   Clear
10:35 AM 60.8 °F 37.4 °F 42% 30.04 in 10.0 mi NW 12.7 mph 17.3 mph N/A   Clear
10:55 AM 64.4 °F 35.6 °F 34% 30.04 in 10.0 mi WNW 15.0 mph 18.4 mph N/A   Clear
11:15 AM 62.6 °F 35.6 °F 37% 30.04 in 10.0 mi WNW 15.0 mph 21.9 mph N/A   Partly Cloudy
11:35 AM 64.4 °F 35.6 °F 34% 30.05 in 10.0 mi WNW 13.8 mph 19.6 mph N/A   Partly Cloudy
11:55 AM 64.4 °F 33.8 °F 32% 30.05 in 10.0 mi NW 11.5 mph 18.4 mph N/A   Clear
12:15 PM 66.2 °F 32.0 °F 28% 30.05 in 10.0 mi NW 10.4 mph 17.3 mph N/A   Clear
12:35 PM 66.2 °F 32.0 °F 28% 30.04 in 10.0 mi WNW 15.0 mph 18.4 mph N/A   Clear
12:55 PM 66.2 °F 32.0 °F 28% 30.04 in 10.0 mi NNW 10.4 mph 21.9 mph N/A   Clear
1:15 PM 66.2 °F 28.4 °F 24% 30.04 in 10.0 mi NNW 11.5 mph 16.1 mph N/A   Clear
1:35 PM 68.0 °F 26.6 °F 21% 30.04 in 10.0 mi NW 12.7 mph 19.6 mph N/A   Clear
1:55 PM 68.0 °F 28.4 °F 23% 30.04 in 10.0 mi NNW 11.5 mph 21.9 mph N/A   Clear
2:15 PM 68.0 °F 30.2 °F 24% 30.04 in 10.0 mi NW 15.0 mph - N/A   Clear
2:35 PM 69.8 °F 32.0 °F 25% 30.03 in 10.0 mi WNW 10.4 mph 16.1 mph N/A   Clear
2:55 PM 66.2 °F 32.0 °F 28% 30.04 in 10.0 mi NNW 6.9 mph - N/A   Clear
3:15 PM 68.0 °F 32.0 °F 26% 30.04 in 10.0 mi North - - N/A   Clear
3:35 PM 68.0 °F 32.0 °F 26% 30.04 in 10.0 mi North - - N/A   Clear
3:55 PM 68.0 °F 32.0 °F 26% 30.04 in 10.0 mi WSW 12.7 mph 16.1 mph N/A   Scattered Clouds
4:15 PM 68.0 °F 32.0 °F 26% 30.05 in 10.0 mi West 5.8 mph - N/A   Scattered Clouds
4:35 PM 66.2 °F 32.0 °F 28% 30.05 in 10.0 mi West 15.0 mph - N/A   Partly Cloudy
4:55 PM 68.0 °F 32.0 °F 26% 30.04 in 10.0 mi West 6.9 mph - N/A   Partly Cloudy
5:15 PM 68.0 °F 28.4 °F 23% 30.03 in 10.0 mi North 6.9 mph - N/A   Partly Cloudy
5:35 PM 66.2 °F 30.2 °F 26% 30.03 in 10.0 mi WSW 5.8 mph - N/A   Scattered Clouds
5:55 PM 66.2 °F 32.0 °F 28% 30.03 in 10.0 mi WSW 8.1 mph - N/A   Partly Cloudy
6:15 PM 66.2 °F 32.0 °F 28% 30.03 in 10.0 mi SSW 4.6 mph - N/A   Clear
6:35 PM 66.2 °F 32.0 °F 28% 30.03 in 10.0 mi SSW 6.9 mph - N/A   Clear
6:55 PM 66.2 °F 32.0 °F 28% 30.03 in 10.0 mi Calm Calm - N/A   Clear
7:15 PM 66.2 °F 32.0 °F 28% 30.03 in 10.0 mi South 4.6 mph - N/A   Clear
7:35 PM 66.2 °F 32.0 °F 28% 30.03 in 10.0 mi SSW 5.8 mph - N/A   Clear
7:55 PM 66.2 °F 32.0 °F 28% 30.04 in 10.0 mi WSW 11.5 mph 24.2 mph N/A   Clear
8:15 PM 64.4 °F 32.0 °F 30% 30.05 in 10.0 mi WNW 15.0 mph 25.3 mph N/A   Clear
8:35 PM 64.4 °F 32.0 °F 30% 30.05 in 10.0 mi WNW 16.1 mph - N/A   Partly Cloudy
8:55 PM 62.6 °F 32.0 °F 32% 30.08 in 10.0 mi West 12.7 mph 16.1 mph N/A   Scattered Clouds
9:15 PM 62.6 °F 32.0 °F 32% 30.08 in 10.0 mi WSW 11.5 mph 20.7 mph N/A   Mostly Cloudy
9:35 PM 60.8 °F 32.0 °F 34% 30.08 in 10.0 mi West 17.3 mph 21.9 mph N/A   Mostly Cloudy
9:55 PM 60.8 °F 32.0 °F 34% 30.09 in 10.0 mi West 15.0 mph 19.6 mph N/A   Overcast
10:15 PM 60.8 °F 32.0 °F 34% 30.10 in 10.0 mi West 15.0 mph 21.9 mph N/A   Overcast
10:35 PM 57.2 °F 37.4 °F 48% 30.11 in 10.0 mi WNW 15.0 mph 19.6 mph N/A   Overcast
10:55 PM 55.4 °F 37.4 °F 51% 30.12 in 10.0 mi WNW 16.1 mph - N/A   Partly Cloudy
11:15 PM 55.4 °F 37.4 °F 51% 30.13 in 10.0 mi WNW 15.0 mph - N/A   Mostly Cloudy
11:35 PM 55.4 °F 37.4 °F 51% 30.14 in 10.0 mi WNW 13.8 mph 20.7 mph N/A   Scattered Clouds
11:55 PM 55.4 °F 37.4 °F 51% 30.14 in 10.0 mi NW 15.0 mph 20.7 mph N/A   Mostly Cloudy